| time (UTC) | temp C | wind direction | speed KPH | gust KPH | rain 1hr cm | rain 24hr cm | rain mn cm | humidity % | barometer mb |
| 20260506103559 | 7 | 353 | 3.2 | 3.2 | 0.00 | 0.00 | 0.00 | 89 | 1019.0 |
| 20260506103056 | 7 | 18 | 3.2 | 3.2 | 0.00 | 0.00 | 0.00 | 90 | 1019.1 |
| 20260506102554 | 7 | 6 | 3.2 | 4.8 | 0.00 | 0.00 | 0.00 | 91 | 1018.9 |
| 20260506102051 | 7 | 19 | 3.2 | 3.2 | 0.00 | 0.00 | 0.00 | 90 | 1019.0 |
| 20260506101548 | 7 | 20 | 1.6 | 3.2 | 0.00 | 0.00 | 0.00 | 90 | 1019.1 |
| 20260506101045 | 7 | 21 | 3.2 | 4.8 | 0.00 | 0.00 | 0.00 | 89 | 1018.8 |
| 20260506100543 | 7 | 22 | 1.6 | 3.2 | 0.00 | 0.00 | 0.00 | 89 | 1018.9 |
| 20260506100041 | 7 | 23 | 4.8 | 4.8 | 0.00 | 0.00 | 0.00 | 89 | 1018.9 |
| 20260506095540 | 7 | 15 | 1.6 | 4.8 | 0.00 | 0.00 | 0.00 | 88 | 1018.8 |
| 20260506095036 | 7 | 19 | 3.2 | 9.7 | 0.00 | 0.00 | 0.00 | 88 | 1019.1 |
| 20260506094533 | 7 | 68 | 1.6 | 4.8 | 0.00 | 0.00 | 0.00 | 88 | 1019.1 |
| 20260506094031 | 7 | 79 | 0.0 | 3.2 | 0.00 | 0.00 | 0.00 | 90 | 1019.0 |
| 20260506093529 | 7 | 26 | 3.2 | 4.8 | 0.00 | 0.00 | 0.00 | 90 | 1019.0 |
| 20260506093026 | 7 | 52 | 0.0 | 3.2 | 0.00 | 0.00 | 0.00 | 90 | 1019.2 |
| 20260506092524 | 7 | 29 | 1.6 | 3.2 | 0.00 | 0.00 | 0.00 | 90 | 1019.2 |
| 20260506092020 | 7 | 44 | 0.0 | 1.6 | 0.00 | 0.00 | 0.00 | 90 | 1019.2 |
| 20260506091519 | 7 | 32 | 3.2 | 4.8 | 0.00 | 0.00 | 0.00 | 89 | 1019.0 |
| 20260506091016 | 7 | 24 | 3.2 | 4.8 | 0.00 | 0.00 | 0.00 | 89 | 1018.9 |
| 20260506090514 | 7 | 41 | 3.2 | 4.8 | 0.00 | 0.00 | 0.00 | 88 | 1019.0 |
| 20260506090010 | 8 | 3 | 1.6 | 3.2 | 0.00 | 0.00 | 0.00 | 87 | 1019.1 |
| 20260506085507 | 8 | 13 | 1.6 | 3.2 | 0.00 | 0.00 | 0.00 | 88 | 1019.2 |
| 20260506085003 | 7 | 23 | 3.2 | 3.2 | 0.00 | 0.00 | 0.00 | 89 | 1019.3 |
| 20260506084500 | 7 | 13 | 1.6 | 4.8 | 0.00 | 0.00 | 0.00 | 87 | 1019.1 |
| 20260506083956 | 8 | 38 | 0.0 | 3.2 | 0.00 | 0.00 | 0.00 | 87 | 1019.0 |
| 20260506083453 | 8 | 100 | 1.6 | 3.2 | 0.00 | 0.00 | 0.00 | 88 | 1019.1 |
| 20260506082951 | 8 | 11 | 3.2 | 4.8 | 0.00 | 0.00 | 0.00 | 88 | 1019.1 |
| 20260506082448 | 7 | 23 | 0.0 | 3.2 | 0.00 | 0.00 | 0.00 | 89 | 1019.2 |
| 20260506081943 | 7 | 30 | 1.6 | 4.8 | 0.00 | 0.00 | 0.00 | 88 | 1019.1 |
| 20260506081442 | 8 | 12 | 3.2 | 3.2 | 0.00 | 0.00 | 0.00 | 88 | 1019.1 |
| 20260506080939 | 8 | 18 | 3.2 | 4.8 | 0.00 | 0.00 | 0.00 | 88 | 1019.1 |
| 20260506080436 | 8 | 26 | 3.2 | 3.2 | 0.00 | 0.00 | 0.00 | 88 | 1019.1 |
| 20260506073420 | 8 | 335 | 1.6 | 6.4 | 0.00 | 0.00 | 0.00 | 87 | 1018.9 |
| 20260506072917 | 8 | 15 | 3.2 | 3.2 | 0.00 | 0.00 | 0.00 | 87 | 1018.8 |
| 20260506072414 | 8 | 26 | 3.2 | 4.8 | 0.00 | 0.00 | 0.00 | 86 | 1018.9 |
| 20260506071912 | 8 | 17 | 3.2 | 3.2 | 0.00 | 0.00 | 0.00 | 86 | 1018.7 |
| 20260506071410 | 8 | 33 | 3.2 | 3.2 | 0.00 | 0.00 | 0.00 | 87 | 1018.8 |
| 20260506070906 | 8 | 21 | 1.6 | 3.2 | 0.00 | 0.00 | 0.00 | 87 | 1018.4 |
| 20260506070403 | 8 | 11 | 1.6 | 3.2 | 0.00 | 0.00 | 0.00 | 87 | 1018.7 |
| 20260506062340 | 8 | 63 | 1.6 | 1.6 | 0.00 | 0.10 | 0.10 | 89 | 1018.3 |
| 20260506061836 | 8 | 42 | 3.2 | 3.2 | 0.00 | 0.10 | 0.10 | 88 | 1018.2 |
| 20260506061333 | 8 | 55 | 0.0 | 0.0 | 0.00 | 0.10 | 0.10 | 89 | 1018.3 |
| 20260506060831 | 8 | 130 | 0.0 | 0.0 | 0.00 | 0.10 | 0.10 | 89 | 1018.0 |
| 20260506060329 | 8 | 330 | 1.6 | 3.2 | 0.00 | 0.10 | 0.10 | 89 | 1018.1 |
| 20260506051300 | 8 | 36 | 0.0 | 3.2 | 0.00 | 0.10 | 0.10 | 88 | 1017.7 |
| 20260506050758 | 8 | 44 | 0.0 | 0.0 | 0.00 | 0.10 | 0.10 | 88 | 1017.5 |
| 20260506050256 | 8 | 66 | 0.0 | 0.0 | 0.00 | 0.10 | 0.10 | 87 | 1017.5 |
| 20260506044746 | 9 | 53 | 0.0 | 1.6 | 0.00 | 0.10 | 0.10 | 86 | 1017.4 |
| 20260506044244 | 9 | 122 | 0.0 | 3.2 | 0.00 | 0.10 | 0.10 | 85 | 1017.3 |
| 20260506043741 | 9 | 14 | 3.2 | 4.8 | 0.00 | 0.10 | 0.10 | 85 | 1017.3 |
| 20260506043238 | 8 | 10 | 3.2 | 3.2 | 0.00 | 0.10 | 0.10 | 87 | 1017.3 |
| 20260506042737 | 8 | 5 | 0.0 | 1.6 | 0.00 | 0.10 | 0.10 | 87 | 1017.2 |
| 20260506042235 | 9 | 246 | 0.0 | 1.6 | 0.00 | 0.10 | 0.10 | 86 | 1017.2 |
| 20260506041733 | 9 | 280 | 0.0 | 0.0 | 0.00 | 0.10 | 0.10 | 86 | 1017.2 |
| 20260506041230 | 9 | 279 | 0.0 | 0.0 | 0.00 | 0.10 | 0.10 | 85 | 1017.0 |
| 20260506040727 | 9 | 235 | 0.0 | 1.6 | 0.00 | 0.10 | 0.10 | 85 | 1016.9 |
| 20260506040224 | 9 | 63 | 0.0 | 1.6 | 0.00 | 0.10 | 0.10 | 85 | 1016.9 |
| 20260506035721 | 10 | 38 | 0.0 | 0.0 | 0.00 | 0.10 | 0.10 | 84 | 1016.7 |
| 20260506035218 | 10 | 42 | 0.0 | 0.0 | 0.00 | 0.10 | 0.10 | 83 | 1017.0 |
| 20260506034714 | 10 | 338 | 0.0 | 3.2 | 0.00 | 0.10 | 0.10 | 83 | 1016.6 |
| 20260506034212 | 10 | 17 | 0.0 | 0.0 | 0.00 | 0.10 | 0.10 | 83 | 1016.7 |
| 20260506033709 | 10 | 27 | 4.8 | 6.4 | 0.00 | 0.10 | 0.10 | 82 | 1016.7 |
| 20260506033206 | 10 | 212 | 0.0 | 1.6 | 0.00 | 0.10 | 0.10 | 82 | 1016.5 |
| 20260506032703 | 10 | 333 | 1.6 | 3.2 | 0.00 | 0.10 | 0.10 | 82 | 1016.5 |
| 20260506032200 | 10 | 29 | 0.0 | 1.6 | 0.00 | 0.10 | 0.10 | 81 | 1016.5 |
| 20260506031656 | 10 | 326 | 0.0 | 1.6 | 0.00 | 0.10 | 0.10 | 81 | 1016.4 |
| 20260506031154 | 11 | 22 | 0.0 | 1.6 | 0.00 | 0.10 | 0.10 | 80 | 1016.3 |
| 20260506030652 | 11 | 22 | 0.0 | 0.0 | 0.00 | 0.10 | 0.10 | 79 | 1016.2 |
| 20260506030149 | 11 | 32 | 0.0 | 1.6 | 0.00 | 0.10 | 0.10 | 79 | 1016.1 |
| 20260506025646 | 11 | 336 | 0.0 | 0.0 | 0.00 | 0.10 | 0.10 | 78 | 1016.1 |
| 20260506025142 | 11 | 49 | 0.0 | 1.6 | 0.00 | 0.10 | 0.10 | 77 | 1016.0 |
| 20260506024640 | 12 | 232 | 0.0 | 1.6 | 0.00 | 0.10 | 0.10 | 76 | 1016.2 |
| 20260506024135 | 12 | 246 | 0.0 | 0.0 | 0.00 | 0.10 | 0.10 | 73 | 1016.1 |
| 20260506023632 | 13 | 309 | 0.0 | 1.6 | 0.00 | 0.10 | 0.10 | 69 | 1016.0 |
| 20260506023129 | 13 | 17 | 3.2 | 6.4 | 0.00 | 0.10 | 0.10 | 64 | 1015.9 |
| 20260506022627 | 13 | 60 | 0.0 | 3.2 | 0.00 | 0.10 | 0.10 | 66 | 1015.9 |
| 20260506022124 | 14 | 7 | 3.2 | 6.4 | 0.00 | 0.10 | 0.10 | 64 | 1015.7 |
| 20260506021622 | 14 | 69 | 0.0 | 0.0 | 0.00 | 0.10 | 0.10 | 66 | 1015.7 |
| 20260506021119 | 15 | 50 | 0.0 | 3.2 | 0.00 | 0.10 | 0.10 | 63 | 1015.5 |
| 20260506020616 | 15 | 69 | 0.0 | 1.6 | 0.00 | 0.10 | 0.10 | 61 | 1015.6 |
| 20260506020113 | 15 | 73 | 3.2 | 4.8 | 0.00 | 0.10 | 0.10 | 60 | 1015.6 |
| 20260506015611 | 16 | 51 | 1.6 | 4.8 | 0.00 | 0.10 | 0.10 | 60 | 1015.6 |
| 20260506015107 | 16 | 104 | 0.0 | 4.8 | 0.00 | 0.10 | 0.10 | 59 | 1015.5 |
| 20260506014605 | 16 | 36 | 3.2 | 4.8 | 0.00 | 0.10 | 0.10 | 57 | 1015.5 |
| 20260506014100 | 16 | 98 | 4.8 | 6.4 | 0.00 | 0.10 | 0.10 | 56 | 1015.5 |
| 20260506013559 | 16 | 31 | 6.4 | 6.4 | 0.00 | 0.10 | 0.10 | 58 | 1015.3 |
| 20260506013055 | 16 | 340 | 1.6 | 8.0 | 0.00 | 0.10 | 0.10 | 56 | 1015.4 |
| 20260506012551 | 16 | 29 | 4.8 | 6.4 | 0.00 | 0.10 | 0.10 | 57 | 1015.5 |
| 20260506012048 | 16 | 50 | 0.0 | 1.6 | 0.00 | 0.10 | 0.10 | 56 | 1015.5 |
| 20260506011546 | 16 | 295 | 3.2 | 6.4 | 0.00 | 0.10 | 0.10 | 56 | 1015.3 |
| 20260506011042 | 16 | 0 | 3.2 | 11.3 | 0.00 | 0.10 | 0.10 | 55 | 1015.5 |
| 20260506010542 | 16 | 309 | 3.2 | 8.0 | 0.00 | 0.10 | 0.10 | 53 | 1015.6 |
| 20260506010038 | 16 | 317 | 6.4 | 8.0 | 0.00 | 0.10 | 0.10 | 55 | 1015.6 |
| 20260506005535 | 16 | 23 | 14.5 | 14.5 | 0.00 | 0.10 | 0.10 | 54 | 1015.6 |
| 20260506005031 | 16 | 13 | 6.4 | 9.7 | 0.00 | 0.10 | 0.10 | 55 | 1015.4 |
| 20260506004529 | 16 | 106 | 3.2 | 9.7 | 0.00 | 0.10 | 0.10 | 56 | 1015.3 |
| 20260506004025 | 17 | 119 | 4.8 | 4.8 | 0.00 | 0.10 | 0.10 | 56 | 1015.4 |
| 20260506003521 | 17 | 37 | 3.2 | 4.8 | 0.00 | 0.10 | 0.10 | 58 | 1015.4 |
| 20260506003018 | 16 | 71 | 3.2 | 6.4 | 0.00 | 0.10 | 0.10 | 58 | 1015.6 |
| 20260506002514 | 16 | 51 | 4.8 | 4.8 | 0.00 | 0.10 | 0.10 | 59 | 1015.6 |
| 20260506002009 | 16 | 60 | 0.0 | 4.8 | 0.00 | 0.10 | 0.10 | 59 | 1015.6 |
| 20260506001506 | 16 | 43 | 3.2 | 6.4 | 0.00 | 0.10 | 0.10 | 59 | 1015.6 |
| 20260506001004 | 16 | 87 | 3.2 | 6.4 | 0.00 | 0.10 | 0.10 | 59 | 1015.6 |
| 20260506000501 | 16 | 65 | 1.6 | 6.4 | 0.00 | 0.10 | 0.10 | 59 | 1015.5 |
| 20260505235958 | 16 | 142 | 1.6 | 3.2 | 0.00 | 0.10 | 0.10 | 58 | 1015.6 |
| 20260505235456 | 16 | 98 | 0.0 | 4.8 | 0.00 | 0.10 | 0.10 | 59 | 1015.6 |
| 20260505234952 | 16 | 67 | 3.2 | 3.2 | 0.00 | 0.10 | 0.10 | 61 | 1015.7 |
| 20260505234450 | 16 | 96 | 1.6 | 3.2 | 0.00 | 0.10 | 0.10 | 60 | 1015.7 |
| 20260505233946 | 16 | 71 | 3.2 | 3.2 | 0.00 | 0.10 | 0.10 | 60 | 1015.7 |
| 20260505233444 | 15 | 89 | 0.0 | 4.8 | 0.00 | 0.10 | 0.10 | 61 | 1015.9 |
| 20260505232941 | 15 | 40 | 3.2 | 4.8 | 0.00 | 0.10 | 0.10 | 61 | 1015.6 |
| 20260505232439 | 15 | 10 | 6.4 | 6.4 | 0.00 | 0.10 | 0.10 | 61 | 1016.2 |
| 20260505231936 | 15 | 59 | 1.6 | 3.2 | 0.00 | 0.10 | 0.10 | 62 | 1015.9 |
| 20260505231433 | 15 | 39 | 0.0 | 3.2 | 0.00 | 0.10 | 0.10 | 58 | 1015.7 |
| 20260505230931 | 15 | 310 | 4.8 | 4.8 | 0.00 | 0.10 | 0.10 | 57 | 1016.1 |
| 20260505230429 | 15 | 300 | 3.2 | 8.0 | 0.00 | 0.10 | 0.10 | 57 | 1015.9 |
| 20260505225925 | 15 | 15 | 4.8 | 6.4 | 0.00 | 0.10 | 0.10 | 58 | 1015.9 |
| 20260505225422 | 15 | 10 | 0.0 | 3.2 | 0.00 | 0.10 | 0.10 | 60 | 1015.7 |
| 20260505224918 | 15 | 304 | 3.2 | 4.8 | 0.00 | 0.10 | 0.10 | 58 | 1015.9 |
| 20260505224415 | 15 | 306 | 6.4 | 8.0 | 0.00 | 0.10 | 0.10 | 57 | 1015.9 |
| 20260505223912 | 15 | 317 | 3.2 | 6.4 | 0.00 | 0.10 | 0.10 | 59 | 1015.7 |
| 20260505223409 | 15 | 310 | 3.2 | 4.8 | 0.00 | 0.10 | 0.10 | 59 | 1016.0 |
| 20260505222905 | 15 | 9 | 4.8 | 12.9 | 0.00 | 0.10 | 0.10 | 58 | 1015.9 |
| 20260505222402 | 15 | 334 | 3.2 | 6.4 | 0.00 | 0.10 | 0.10 | 59 | 1015.9 |
| 20260505221858 | 15 | 331 | 3.2 | 4.8 | 0.00 | 0.10 | 0.10 | 59 | 1015.9 |
| 20260505221355 | 15 | 12 | 3.2 | 3.2 | 0.00 | 0.10 | 0.10 | 58 | 1015.7 |
| 20260505220852 | 15 | 315 | 3.2 | 4.8 | 0.00 | 0.10 | 0.10 | 59 | 1015.7 |
| 20260505220349 | 15 | 353 | 3.2 | 6.4 | 0.00 | 0.10 | 0.10 | 59 | 1015.7 |
| 20260505215847 | 15 | 12 | 3.2 | 8.0 | 0.00 | 0.10 | 0.10 | 58 | 1015.9 |
| 20260505215345 | 15 | 319 | 4.8 | 9.7 | 0.00 | 0.10 | 0.10 | 59 | 1015.7 |
| 20260505214843 | 15 | 358 | 3.2 | 6.4 | 0.00 | 0.10 | 0.10 | 59 | 1015.7 |
| 20260505214340 | 15 | 347 | 3.2 | 4.8 | 0.00 | 0.10 | 0.10 | 59 | 1015.9 |
| 20260505213837 | 15 | 315 | 8.0 | 9.7 | 0.00 | 0.10 | 0.10 | 59 | 1016.0 |
| 20260505213335 | 15 | 277 | 3.2 | 9.7 | 0.00 | 0.10 | 0.10 | 59 | 1016.0 |
| 20260505212830 | 15 | 39 | 8.0 | 9.7 | 0.00 | 0.10 | 0.10 | 58 | 1016.0 |
| 20260505212328 | 16 | 345 | 1.6 | 4.8 | 0.00 | 0.10 | 0.10 | 57 | 1016.1 |
| 20260505211823 | 15 | 349 | 1.6 | 6.4 | 0.00 | 0.10 | 0.10 | 57 | 1015.7 |
| 20260505211322 | 15 | 9 | 4.8 | 9.7 | 0.00 | 0.10 | 0.10 | 59 | 1016.0 |
| 20260505210818 | 15 | 17 | 0.0 | 6.4 | 0.00 | 0.10 | 0.10 | 61 | 1015.9 |
| 20260505210315 | 15 | 11 | 3.2 | 6.4 | 0.00 | 0.10 | 0.10 | 61 | 1016.0 |
| 20260505205812 | 15 | 0 | 1.6 | 6.4 | 0.00 | 0.10 | 0.10 | 62 | 1015.7 |
| 20260505205310 | 15 | 7 | 0.0 | 6.4 | 0.00 | 0.10 | 0.10 | 62 | 1015.9 |
| 20260505204806 | 15 | 350 | 4.8 | 9.7 | 0.00 | 0.10 | 0.10 | 63 | 1015.7 |
| 20260505204304 | 15 | 29 | 3.2 | 6.4 | 0.00 | 0.10 | 0.10 | 63 | 1015.7 |
| 20260505203801 | 15 | 21 | 4.8 | 9.7 | 0.00 | 0.10 | 0.10 | 66 | 1015.7 |
| 20260505203258 | 15 | 312 | 3.2 | 6.4 | 0.00 | 0.10 | 0.10 | 63 | 1016.0 |
| 20260505202754 | 15 | 321 | 4.8 | 8.0 | 0.00 | 0.10 | 0.10 | 65 | 1016.0 |
| 20260505202250 | 15 | 320 | 4.8 | 12.9 | 0.00 | 0.10 | 0.10 | 67 | 1015.7 |
| 20260505201747 | 15 | 9 | 3.2 | 14.5 | 0.00 | 0.10 | 0.10 | 67 | 1015.7 |
| 20260505201245 | 15 | 331 | 4.8 | 9.7 | 0.00 | 0.10 | 0.10 | 66 | 1015.7 |
| 20260505200743 | 15 | 309 | 3.2 | 4.8 | 0.00 | 0.10 | 0.10 | 65 | 1015.7 |
| 20260505200240 | 15 | 296 | 3.2 | 12.9 | 0.00 | 0.10 | 0.10 | 67 | 1015.6 |
| 20260505195735 | 15 | 269 | 0.0 | 8.0 | 0.00 | 0.10 | 0.10 | 72 | 1015.7 |
| 20260505195233 | 15 | 299 | 9.7 | 11.3 | 0.00 | 0.10 | 0.10 | 69 | 1016.1 |
| 20260505194730 | 15 | 32 | 3.2 | 9.7 | 0.00 | 0.10 | 0.10 | 66 | 1015.9 |
| 20260505194226 | 15 | 290 | 8.0 | 12.9 | 0.00 | 0.10 | 0.10 | 71 | 1015.7 |
| 20260505193722 | 15 | 341 | 9.7 | 17.7 | 0.00 | 0.10 | 0.10 | 74 | 1015.9 |
| 20260505193219 | 16 | 10 | 11.3 | 12.9 | 0.00 | 0.10 | 0.10 | 68 | 1015.6 |
| 20260505192718 | 15 | 274 | 1.6 | 6.4 | 0.00 | 0.10 | 0.10 | 71 | 1016.1 |
| 20260505192215 | 15 | 350 | 3.2 | 11.3 | 0.00 | 0.10 | 0.10 | 75 | 1015.7 |
| 20260505191713 | 15 | 298 | 4.8 | 6.4 | 0.00 | 0.10 | 0.10 | 72 | 1015.6 |
| 20260505191212 | 15 | 306 | 3.2 | 8.0 | 0.00 | 0.10 | 0.10 | 78 | 1015.9 |
| 20260505190708 | 14 | 316 | 8.0 | 14.5 | 0.00 | 0.10 | 0.10 | 75 | 1015.7 |
| 20260505190207 | 13 | 21 | 3.2 | 8.0 | 0.00 | 0.10 | 0.10 | 82 | 1016.0 |
| 20260505185704 | 13 | 359 | 3.2 | 6.4 | 0.00 | 0.10 | 0.10 | 82 | 1015.9 |
| 20260505185200 | 13 | 126 | 3.2 | 3.2 | 0.00 | 0.10 | 0.10 | 83 | 1016.0 |
| 20260505184657 | 13 | 69 | 0.0 | 4.8 | 0.00 | 0.10 | 0.10 | 81 | 1016.1 |
| 20260505184154 | 13 | 98 | 1.6 | 3.2 | 0.00 | 0.10 | 0.10 | 82 | 1016.0 |
| 20260505183651 | 13 | 210 | 0.0 | 6.4 | 0.00 | 0.10 | 0.10 | 82 | 1015.7 |
| 20260505183148 | 13 | 128 | 4.8 | 6.4 | 0.00 | 0.10 | 0.10 | 85 | 1015.9 |
| 20260505182645 | 12 | 232 | 0.0 | 6.4 | 0.00 | 0.10 | 0.10 | 84 | 1015.7 |
| 20260505182142 | 12 | 180 | 3.2 | 8.0 | 0.00 | 0.10 | 0.10 | 85 | 1015.9 |
| 20260505181638 | 12 | 261 | 0.0 | 4.8 | 0.00 | 0.10 | 0.10 | 85 | 1015.9 |
| 20260505181136 | 12 | 273 | 3.2 | 4.8 | 0.00 | 0.10 | 0.10 | 84 | 1015.6 |
| 20260505180631 | 12 | 292 | 1.6 | 6.4 | 0.00 | 0.10 | 0.10 | 85 | 1015.9 |
| 20260505180129 | 12 | 142 | 1.6 | 6.4 | 0.00 | 0.10 | 0.10 | 84 | 1015.6 |
| 20260505175625 | 12 | 180 | 3.2 | 6.4 | 0.00 | 0.10 | 0.10 | 85 | 1015.5 |
| 20260505175122 | 13 | 229 | 8.0 | 8.0 | 0.00 | 0.10 | 0.10 | 87 | 1015.4 |
| 20260505174618 | 12 | 272 | 3.2 | 6.4 | 0.00 | 0.10 | 0.10 | 85 | 1015.6 |
| 20260505174114 | 12 | 225 | 0.0 | 6.4 | 0.00 | 0.10 | 0.10 | 86 | 1015.5 |
| 20260505173611 | 12 | 152 | 3.2 | 6.4 | 0.00 | 0.10 | 0.10 | 89 | 1015.3 |
| 20260505173108 | 12 | 181 | 3.2 | 4.8 | 0.00 | 0.10 | 0.10 | 88 | 1015.3 |
| 20260505172606 | 12 | 343 | 3.2 | 9.7 | 0.00 | 0.10 | 0.10 | 88 | 1015.4 |
| 20260505172102 | 12 | 319 | 3.2 | 4.8 | 0.00 | 0.10 | 0.10 | 89 | 1015.3 |
| 20260505171556 | 12 | 226 | 3.2 | 8.0 | 0.00 | 0.10 | 0.10 | 88 | 1015.4 |
| 20260505171054 | 12 | 231 | 3.2 | 3.2 | 0.00 | 0.10 | 0.10 | 90 | 1015.4 |
| 20260505170551 | 12 | 225 | 6.4 | 6.4 | 0.00 | 0.10 | 0.10 | 89 | 1015.4 |
| 20260505170047 | 12 | 182 | 3.2 | 4.8 | 0.00 | 0.10 | 0.10 | 91 | 1015.4 |
| 20260505165542 | 12 | 176 | 0.0 | 4.8 | 0.00 | 0.10 | 0.10 | 90 | 1015.1 |
| 20260505165038 | 12 | 251 | 1.6 | 3.2 | 0.00 | 0.10 | 0.10 | 90 | 1015.3 |
| 20260505164534 | 11 | 17 | 0.0 | 3.2 | 0.00 | 0.10 | 0.10 | 91 | 1015.2 |
| 20260505164032 | 12 | 241 | 3.2 | 4.8 | 0.00 | 0.10 | 0.10 | 90 | 1015.2 |
| 20260505163531 | 12 | 117 | 4.8 | 6.4 | 0.00 | 0.10 | 0.10 | 91 | 1015.1 |
| 20260505163027 | 11 | 229 | 0.0 | 3.2 | 0.00 | 0.10 | 0.10 | 91 | 1014.8 |
| 20260505162520 | 11 | 321 | 3.2 | 6.4 | 0.00 | 0.10 | 0.10 | 90 | 1015.0 |
| 20260505162018 | 11 | 128 | 0.0 | 1.6 | 0.00 | 0.10 | 0.10 | 93 | 1015.0 |
| 20260505161514 | 11 | 151 | 3.2 | 3.2 | 0.00 | 0.10 | 0.10 | 93 | 1014.9 |
| 20260505161011 | 11 | 239 | 3.2 | 3.2 | 0.00 | 0.10 | 0.10 | 93 | 1015.1 |
| 20260505160509 | 11 | 230 | 4.8 | 6.4 | 0.00 | 0.10 | 0.10 | 92 | 1015.1 |
| 20260505152946 | 11 | 243 | 0.0 | 0.0 | 0.00 | 0.10 | 0.10 | 93 | 1014.6 |
| 20260505152443 | 11 | 97 | 3.2 | 4.8 | 0.00 | 0.10 | 0.10 | 92 | 1014.7 |
| 20260505151943 | 11 | 115 | 3.2 | 3.2 | 0.00 | 0.10 | 0.10 | 92 | 1014.7 |
| 20260505151439 | 11 | 70 | 0.0 | 1.6 | 0.00 | 0.10 | 0.10 | 92 | 1014.8 |
| 20260505150937 | 11 | 123 | 0.0 | 3.2 | 0.00 | 0.10 | 0.10 | 92 | 1014.6 |
| 20260505150433 | 11 | 108 | 0.0 | 1.6 | 0.00 | 0.10 | 0.10 | 92 | 1014.6 |
| 20260505140404 | 10 | 76 | 0.0 | 1.6 | 0.00 | 0.10 | 0.10 | 95 | 1014.1 |
| 20260505124817 | 10 | 64 | 1.6 | 3.2 | 0.05 | 0.05 | 0.05 | 94 | 1013.7 |
| 20260505124314 | 10 | 30 | 3.2 | 4.8 | 0.05 | 0.05 | 0.05 | 93 | 1013.6 |
| 20260505123810 | 10 | 34 | 0.0 | 3.2 | 0.05 | 0.03 | 0.03 | 93 | 1013.6 |
| 20260505123307 | 10 | 45 | 3.2 | 3.2 | 0.05 | 0.03 | 0.03 | 93 | 1013.7 |
| 20260505122803 | 10 | 25 | 3.2 | 3.2 | 0.13 | 0.03 | 0.03 | 94 | 1013.7 |
| 20260505122301 | 10 | 89 | 0.0 | 1.6 | 0.00 | 0.00 | 0.00 | 93 | 1013.6 |
| 20260505121757 | 10 | 74 | 1.6 | 3.2 | 0.00 | 0.00 | 0.00 | 93 | 1013.6 |
| 20260505121254 | 10 | 77 | 0.0 | 1.6 | 0.00 | 0.00 | 0.00 | 93 | 1013.7 |
| 20260505120750 | 10 | 72 | 1.6 | 3.2 | 0.00 | 0.00 | 0.00 | 92 | 1013.6 |
| 20260505120246 | 10 | 64 | 1.6 | 1.6 | 0.00 | 0.00 | 0.00 | 92 | 1013.5 |
| 20260505115745 | 10 | 55 | 1.6 | 3.2 | 0.00 | 0.00 | 0.00 | 92 | 1013.7 |
| 20260505115243 | 10 | 92 | 3.2 | 3.2 | 0.00 | 0.00 | 0.00 | 91 | 1013.6 |
| 20260505114740 | 10 | 33 | 3.2 | 3.2 | 0.00 | 0.00 | 0.00 | 91 | 1013.7 |
| 20260505114236 | 10 | 34 | 3.2 | 3.2 | 0.00 | 0.00 | 0.00 | 91 | 1013.6 |
| 20260505113733 | 10 | 13 | 1.6 | 3.2 | 0.00 | 0.00 | 0.00 | 91 | 1013.6 |
| 20260505113229 | 10 | 357 | 1.6 | 3.2 | 0.00 | 0.00 | 0.00 | 91 | 1013.5 |
| 20260505112725 | 10 | 11 | 1.6 | 3.2 | 0.00 | 0.00 | 0.00 | 91 | 1013.5 |
| 20260505112223 | 10 | 27 | 1.6 | 3.2 | 0.00 | 0.00 | 0.00 | 91 | 1013.7 |
| 20260505111723 | 10 | 47 | 0.0 | 3.2 | 0.00 | 0.00 | 0.00 | 91 | 1013.5 |
| 20260505111219 | 10 | 5 | 3.2 | 3.2 | 0.00 | 0.00 | 0.00 | 91 | 1013.4 |
| 20260505110715 | 10 | 25 | 3.2 | 3.2 | 0.00 | 0.00 | 0.00 | 91 | 1013.5 |
| 20260505110213 | 10 | 14 | 3.2 | 3.2 | 0.00 | 0.00 | 0.00 | 92 | 1013.6 |